User: anonymous   Login
Location: Unspecified
(0.0000°N, 0.0000°E)
Time: 08:21:41
(UTC+00:00)
Language:

FREEDOM - Orbit

View from above orbital plane
View from above orbital plane
View from above satellite
View from above satellite

Ground track
Ground track

The orbit data is extracted from the following two-line orbital elements,

1 41932U 98067KU  18262.88120085  .00048289  00000-0  21443-3 0  9998
2 41932 051.6284 210.4233 0002577 155.9679 204.1445 15.83852747095739
Epoch (UTC): 19 September 2018 21:08:55
Eccentricity: 0.0002577
inclination: 51.6284°
perigee height: 318 km
apogee height: 321 km
right ascension of ascending node: 210.4233°
argument of perigee: 155.9679°
revolutions per day: 15.83852747
mean anomaly at epoch: 204.1445°
orbit number at epoch: 9573

The dashed part of the orbit path shows where the satellite is in the earth's shadow,  

DLR